Dades meteomassalio
Diari Summary for Maig 9, 2017 Units:  Metric    English   Both
« Previous Day
Next Day »
Diari Semanal Mensual Anual Personalitzat
  Maxima: Minima: Mijana:
Temperatura: 24.9 °C 8.4 °C 16.6 °C
Rosada: 14.1 °C -0.3 °C 7.2 °C
Humitat: 89 % 35 % 55 %
Velocitat del vent: 44.4 km/h 0.0 km/h 7.7 km/h
Racha vent: 44.4 km/h - -
Vent:- - ESE
Pressio: 1014.1 hPa 1003.6 hPa -
Pluja: 1.3 mm    
Historical Graphs
 
 
Tabular Data for Maig 9, 2017
Time Temperature Dew Point Pressure Wind Wind Speed Wind Gust Humidity Rainfall Rate (Hourly) solar Conditions
00:03 15.6 °C 0.1 °C 1014.1 hPa Calm     35 % 0.0 mm 0.0 W/m2 CLR
00:08 15.4 °C 0.1 °C 1014.1 hPa Calm     35 % 0.0 mm 0.0 W/m2 CLR
00:13 15.3 °C -0.1 °C 1014.1 hPa Calm     35 % 0.0 mm 0.0 W/m2 CLR
00:18 15.3 °C -0.1 °C 1014.1 hPa Calm     35 % 0.0 mm 0.0 W/m2 CLR
00:23 15.2 °C 0.6 °C 1014.1 hPa Calm     37 % 0.0 mm 0.0 W/m2 CLR
00:28 14.9 °C 0.7 °C 1014.1 hPa Calm     38 % 0.0 mm 0.0 W/m2 CLR
00:33 14.6 °C 0.7 °C 1014.1 hPa Calm     39 % 0.0 mm 0.0 W/m2 CLR
00:38 14.3 °C 0.6 °C 1014.1 hPa Calm     39 % 0.0 mm 0.0 W/m2 CLR
00:43 14.1 °C 0.3 °C 1014.1 hPa Calm     39 % 0.0 mm 0.0 W/m2 CLR
00:48 13.9 °C 0.8 °C 1014.1 hPa Calm     41 % 0.0 mm 0.0 W/m2 CLR
00:53 13.6 °C 0.6 °C 1014.1 hPa Calm     41 % 0.0 mm 0.0 W/m2 CLR
00:58 13.3 °C 0.3 °C 1014.1 hPa Calm     41 % 0.0 mm 0.0 W/m2 CLR
01:03 13.1 °C 0.4 °C 1014.1 hPa Calm     42 % 0.0 mm 0.0 W/m2 CLR
01:08 12.9 °C 0.6 °C 1014.1 hPa Calm     43 % 0.0 mm 0.0 W/m2 CLR
01:13 12.8 °C 0.5 °C 1014.1 hPa Calm     43 % 0.0 mm 0.0 W/m2 CLR
01:18 12.6 °C 0.0 °C 1014.1 hPa Calm     42 % 0.0 mm 0.0 W/m2 CLR
01:23 12.6 °C 0.6 °C 1014.1 hPa Calm     44 % 0.0 mm 0.0 W/m2 CLR
01:28 12.4 °C 0.2 °C 1014.1 hPa Calm     43 % 0.0 mm 0.0 W/m2 CLR
01:33 12.6 °C -0.1 °C 1014.1 hPa Calm     42 % 0.0 mm 0.0 W/m2 CLR
01:38 12.6 °C 0.7 °C 1014.1 hPa Calm     44 % 0.0 mm 0.0 W/m2 CLR
01:43 12.4 °C 0.5 °C 1014.1 hPa Calm     44 % 0.0 mm 0.0 W/m2 CLR
01:48 12.2 °C 0.3 °C 1014.1 hPa Calm     44 % 0.0 mm 0.0 W/m2 CLR
01:53 12.0 °C 0.4 °C 1014.1 hPa Calm     45 % 0.0 mm 0.0 W/m2 CLR
01:58 11.8 °C 0.2 °C 1014.1 hPa Calm     45 % 0.0 mm 0.0 W/m2 CLR
02:03 11.7 °C 0.1 °C 1014.1 hPa Calm     45 % 0.0 mm 0.0 W/m2 CLR
02:08 11.6 °C 0.0 °C 1014.1 hPa Calm     45 % 0.0 mm 0.0 W/m2 CLR
02:13 11.6 °C 0.0 °C 1014.1 hPa Calm     45 % 0.0 mm 0.0 W/m2 CLR
02:18 11.4 °C 0.2 °C 1014.1 hPa Calm     46 % 0.0 mm 0.0 W/m2 CLR
02:23 11.3 °C 0.1 °C 1013.8 hPa Calm     46 % 0.0 mm 0.0 W/m2 CLR
02:28 11.2 °C 0.3 °C 1013.8 hPa Calm     47 % 0.0 mm 0.0 W/m2 CLR
02:33 11.1 °C 0.2 °C 1013.8 hPa Calm     47 % 0.0 mm 0.0 W/m2 CLR
02:38 10.9 °C 0.1 °C 1013.8 hPa Calm     47 % 0.0 mm 0.0 W/m2 CLR
02:43 10.8 °C -0.1 °C 1013.8 hPa Calm     47 % 0.0 mm 0.0 W/m2 CLR
02:48 10.7 °C 0.2 °C 1013.8 hPa Calm     48 % 0.0 mm 0.0 W/m2 CLR
02:53 10.6 °C 0.3 °C 1013.8 hPa Calm     49 % 0.0 mm 0.0 W/m2 CLR
02:58 10.5 °C 0.2 °C 1013.8 hPa Calm     49 % 0.0 mm 0.0 W/m2 CLR
03:03 10.3 °C 0.1 °C 1013.8 hPa Calm     49 % 0.0 mm 0.0 W/m2 CLR
03:08 10.3 °C 0.1 °C 1013.8 hPa Calm     49 % 0.0 mm 0.0 W/m2 CLR
03:13 10.3 °C -0.2 °C 1013.8 hPa Calm     48 % 0.0 mm 0.0 W/m2 CLR
03:18 10.3 °C -0.3 °C 1013.8 hPa Calm     48 % 0.0 mm 0.0 W/m2 CLR
03:23 10.3 °C 0.0 °C 1013.8 hPa Calm     49 % 0.0 mm 0.0 W/m2 CLR
03:28 10.2 °C 0.2 °C 1013.8 hPa Calm     50 % 0.0 mm 0.0 W/m2 CLR
03:33 10.1 °C 0.1 °C 1013.4 hPa Calm     50 % 0.0 mm 0.0 W/m2 CLR
03:38 9.8 °C 0.2 °C 1013.4 hPa Calm     51 % 0.0 mm 0.0 W/m2 CLR
03:43 9.7 °C 0.1 °C 1013.4 hPa Calm     51 % 0.0 mm 0.0 W/m2 CLR
03:48 9.7 °C 0.0 °C 1013.4 hPa Calm     51 % 0.0 mm 0.0 W/m2 CLR
03:53 9.6 °C -0.1 °C 1013.4 hPa Calm     51 % 0.0 mm 0.0 W/m2 CLR
03:58 9.6 °C -0.1 °C 1013.1 hPa Calm     51 % 0.0 mm 0.0 W/m2 CLR
04:03 9.6 °C -0.1 °C 1013.1 hPa Calm     51 % 0.0 mm 0.0 W/m2 CLR
04:09 9.6 °C -0.1 °C 1013.1 hPa Calm     51 % 0.0 mm 0.0 W/m2 CLR
04:14 9.6 °C -0.1 °C 1013.1 hPa Calm     51 % 0.0 mm 0.0 W/m2 CLR
04:19 9.7 °C 0.1 °C 1013.1 hPa Calm     51 % 0.0 mm 0.0 W/m2 CLR
04:24 9.7 °C 0.1 °C 1013.1 hPa Calm     51 % 0.0 mm 0.0 W/m2 CLR
04:28 9.7 °C 0.3 °C 1013.1 hPa Calm     52 % 0.0 mm 0.0 W/m2 CLR
04:34 9.5 °C 0.4 °C 1013.1 hPa Calm     53 % 0.0 mm 0.0 W/m2 CLR
04:39 9.4 °C 0.3 °C 1013.1 hPa Calm     53 % 0.0 mm 0.0 W/m2 CLR
04:43 9.3 °C 0.2 °C 1013.1 hPa Calm     53 % 0.0 mm 0.0 W/m2 CLR
04:49 9.2 °C 0.1 °C 1013.1 hPa Calm     53 % 0.0 mm 0.0 W/m2 CLR
04:54 9.1 °C 0.3 °C 1012.8 hPa Calm     54 % 0.0 mm 0.0 W/m2 CLR
04:59 9.1 °C 0.2 °C 1012.8 hPa Calm     54 % 0.0 mm 0.0 W/m2 CLR
05:04 9.0 °C 0.2 °C 1012.8 hPa Calm     54 % 0.0 mm 0.0 W/m2 CLR
05:09 9.1 °C 0.2 °C 1012.8 hPa Calm     54 % 0.0 mm 0.0 W/m2 CLR
05:14 9.2 °C 0.3 °C 1012.8 hPa Calm     54 % 0.0 mm 0.0 W/m2 CLR
05:19 9.2 °C 0.4 °C 1012.8 hPa Calm     54 % 0.0 mm 0.0 W/m2 CLR
05:24 9.2 °C 0.4 °C 1012.8 hPa Calm     54 % 0.0 mm 0.0 W/m2 CLR
05:29 9.2 °C 0.3 °C 1012.8 hPa Calm     54 % 0.0 mm 0.0 W/m2 CLR
05:34 9.1 °C 0.3 °C 1012.8 hPa Calm     54 % 0.0 mm 0.0 W/m2 CLR
05:39 9.2 °C 0.4 °C 1012.8 hPa Calm     54 % 0.0 mm 0.0 W/m2 CLR
05:44 9.2 °C 0.4 °C 1012.8 hPa Calm     54 % 0.0 mm 0.0 W/m2 CLR
05:49 9.3 °C 0.4 °C 1012.8 hPa Calm     54 % 0.0 mm 0.0 W/m2 CLR
05:54 9.3 °C 0.5 °C 1012.8 hPa Calm     54 % 0.0 mm 0.0 W/m2 CLR
05:59 9.2 °C 0.6 °C 1012.8 hPa Calm     55 % 0.0 mm 0.0 W/m2 CLR
06:04 9.1 °C 0.6 °C 1012.8 hPa Calm     55 % 0.0 mm 0.0 W/m2 CLR
06:09 9.1 °C 0.5 °C 1012.8 hPa Calm     55 % 0.0 mm 0.0 W/m2 CLR
06:14 9.0 °C 0.7 °C 1012.8 hPa Calm     56 % 0.0 mm 0.0 W/m2 CLR
06:19 8.9 °C 0.6 °C 1012.4 hPa Calm     56 % 0.0 mm 0.0 W/m2 CLR
06:24 8.9 °C 0.6 °C 1012.4 hPa Calm     56 % 0.0 mm 0.0 W/m2 CLR
06:29 8.9 °C 0.6 °C 1012.4 hPa Calm     56 % 0.0 mm 0.0 W/m2 CLR
06:34 8.9 °C 0.6 °C 1012.4 hPa Calm     56 % 0.0 mm 0.0 W/m2 CLR
06:39 8.8 °C 0.8 °C 1012.4 hPa Calm     57 % 0.0 mm 5.0 W/m2 OVC
06:44 8.7 °C 0.9 °C 1012.4 hPa Calm     58 % 0.0 mm 5.0 W/m2 OVC
06:49 8.6 °C 0.8 °C 1012.4 hPa Calm     58 % 0.0 mm 7.0 W/m2 OVC
06:54 8.4 °C 0.8 °C 1012.4 hPa Calm     59 % 0.0 mm 7.0 W/m2 BKN
06:59 8.4 °C 0.8 °C 1012.4 hPa Calm     59 % 0.0 mm 14.0 W/m2 BKN
07:04 8.4 °C 0.8 °C 1012.4 hPa Calm     59 % 0.0 mm 19.0 W/m2 BKN
07:09 8.4 °C 0.8 °C 1012.4 hPa Calm     59 % 0.0 mm 26.0 W/m2 BKN
07:14 8.5 °C 0.9 °C 1012.4 hPa Calm     59 % 0.0 mm 40.0 W/m2 BKN
07:19 8.6 °C 1.1 °C 1012.8 hPa Calm     59 % 0.0 mm 46.0 W/m2 SCT
07:20 8.6 °C 1.1 °C 1012.8 hPa Calm     59 % 0.0 mm 46.0 W/m2 SCT
07:25 8.7 °C 1.2 °C 1012.8 hPa Calm     59 % 0.0 mm 49.0 W/m2 SCT
07:30 8.8 °C 1.2 °C 1012.8 hPa Calm     59 % 0.0 mm 54.0 W/m2 SCT
07:35 8.9 °C 1.3 °C 1012.8 hPa Calm     59 % 0.0 mm 58.0 W/m2 SCT
07:40 9.0 °C 1.2 °C 1012.8 hPa Calm     58 % 0.0 mm 65.0 W/m2 SCT
07:45 9.2 °C 1.6 °C 1012.8 hPa Calm     59 % 0.0 mm 69.0 W/m2 FEW
07:50 9.4 °C 1.6 °C 1012.8 hPa Calm     58 % 0.0 mm 77.0 W/m2 FEW
07:55 9.6 °C 1.4 °C 1012.8 hPa Calm     57 % 0.0 mm 90.0 W/m2 FEW
08:00 9.8 °C 1.4 °C 1012.8 hPa Calm     56 % 0.0 mm 100.0 W/m2 CLR
08:05 10.0 °C 1.6 °C 1012.8 hPa Calm     56 % 0.0 mm 111.0 W/m2 CLR
08:10 10.3 °C 1.9 °C 1012.4 hPa Calm     56 % 0.0 mm 132.0 W/m2 CLR
08:15 10.7 °C 1.7 °C 1012.4 hPa Calm     54 % 0.0 mm 148.0 W/m2 CLR
08:20 11.1 °C 2.3 °C 1012.4 hPa Calm     55 % 0.0 mm 149.0 W/m2 CLR
08:25 11.3 °C 2.1 °C 1012.4 hPa Calm     53 % 0.0 mm 162.0 W/m2 CLR
08:30 11.6 °C 2.3 °C 1012.4 hPa Calm     53 % 0.0 mm 141.0 W/m2 CLR
08:35 11.8 °C 2.3 °C 1012.4 hPa Calm     52 % 0.0 mm 211.0 W/m2 CLR
08:40 12.2 °C 2.3 °C 1012.1 hPa Calm     51 % 0.0 mm 216.0 W/m2 CLR
08:45 12.5 °C 2.3 °C 1012.1 hPa Calm     50 % 0.0 mm 172.0 W/m2 CLR
08:50 12.8 °C 2.4 °C 1012.1 hPa Calm     49 % 0.0 mm 253.0 W/m2 CLR
08:55 13.2 °C 2.7 °C 1012.1 hPa Calm     49 % 0.0 mm 283.0 W/m2 CLR
09:00 13.7 °C 2.9 °C 1012.1 hPa Calm     48 % 0.0 mm 318.0 W/m2 CLR
09:05 14.3 °C 3.4 °C 1012.1 hPa Calm     48 % 0.0 mm 369.0 W/m2 CLR
09:10 14.9 °C 3.1 °C 1012.1 hPa Calm     45 % 0.0 mm 383.0 W/m2 CLR
09:15 15.3 °C 3.1 °C 1012.1 hPa Calm     44 % 0.0 mm 309.0 W/m2 CLR
09:20 15.5 °C 3.3 °C 1012.1 hPa Calm     44 % 0.0 mm 394.0 W/m2 CLR
09:25 15.7 °C 3.2 °C 1012.1 hPa Calm     43 % 0.0 mm 332.0 W/m2 CLR
09:30 16.1 °C 3.4 °C 1011.7 hPa Calm     43 % 0.0 mm 373.0 W/m2 CLR
09:35 16.4 °C 3.8 °C 1012.1 hPa Calm     43 % 0.0 mm 258.0 W/m2 CLR
09:40 16.9 °C 4.2 °C 1011.7 hPa Calm     43 % 0.0 mm 383.0 W/m2 CLR
09:45 17.3 °C 4.6 °C 1011.7 hPa Calm     43 % 0.0 mm 380.0 W/m2 CLR
09:50 17.6 °C 5.2 °C 1011.7 hPa Calm     44 % 0.0 mm 373.0 W/m2 CLR
09:55 17.9 °C 4.8 °C 1011.7 hPa Calm     42 % 0.0 mm 350.0 W/m2 CLR
10:00 18.2 °C 4.4 °C 1011.7 hPa Calm     40 % 0.0 mm 339.0 W/m2 CLR
10:05 18.3 °C 4.4 °C 1011.7 hPa Calm     40 % 0.0 mm 383.0 W/m2 CLR
10:10 18.3 °C 4.4 °C 1011.7 hPa Calm     40 % 0.0 mm 394.0 W/m2 CLR
10:15 18.3 °C 4.5 °C 1011.4 hPa Calm     40 % 0.0 mm 408.0 W/m2 CLR
10:20 18.3 °C 5.2 °C 1011.4 hPa Calm     42 % 0.0 mm 390.0 W/m2 CLR
10:25 18.4 °C 4.9 °C 1011.4 hPa NE 5.6 km/h 5.6 km/h 41 % 0.0 mm 424.0 W/m2 CLR
10:26 18.4 °C 4.9 °C 1011.4 hPa NE 3.7 km/h 3.7 km/h 41 % 0.0 mm 424.0 W/m2 CLR
10:31 18.4 °C 5.3 °C 1011.1 hPa ENE 5.6 km/h 5.6 km/h 42 % 0.0 mm 469.0 W/m2 CLR
10:36 18.6 °C 6.4 °C 1011.1 hPa NE 5.6 km/h 5.6 km/h 45 % 0.0 mm 394.0 W/m2 CLR
10:41 18.6 °C 6.8 °C 1011.1 hPa ENE 5.6 km/h 5.6 km/h 46 % 0.0 mm 519.0 W/m2 CLR
10:46 18.7 °C 7.2 °C 1011.1 hPa ENE 9.3 km/h 9.3 km/h 47 % 0.0 mm 487.0 W/m2 CLR
10:51 18.8 °C 7.3 °C 1011.1 hPa NE 9.3 km/h 9.3 km/h 47 % 0.0 mm 461.0 W/m2 CLR
10:52 18.8 °C 7.3 °C 1011.1 hPa NNE 7.4 km/h 7.4 km/h 47 % 0.0 mm 471.0 W/m2 CLR
10:57 18.9 °C 7.3 °C 1011.1 hPa NE 11.3 km/h 11.3 km/h 47 % 0.0 mm 559.0 W/m2 CLR
11:02 18.9 °C 7.4 °C 1010.7 hPa NE 9.3 km/h 9.3 km/h 47 % 0.0 mm 496.0 W/m2 CLR
11:07 19.1 °C 7.2 °C 1010.7 hPa NE 11.1 km/h 11.1 km/h 46 % 0.0 mm 485.0 W/m2 CLR
11:12 19.2 °C 7.0 °C 1010.7 hPa NE 11.3 km/h 11.3 km/h 45 % 0.0 mm 439.0 W/m2 CLR
11:17 19.4 °C 7.4 °C 1010.7 hPa NE 7.4 km/h 7.4 km/h 46 % 0.0 mm 668.0 W/m2 CLR
11:22 19.6 °C 7.3 °C 1010.4 hPa NE 9.3 km/h 9.3 km/h 45 % 0.0 mm 536.0 W/m2 CLR
11:27 19.8 °C 7.6 °C 1010.4 hPa NNE 8.0 km/h 8.0 km/h 45 % 0.0 mm 680.0 W/m2 CLR
11:32 20.2 °C 7.8 °C 1010.4 hPa NNE 13.0 km/h 13.0 km/h 45 % 0.0 mm 726.0 W/m2 CLR
11:37 20.4 °C 7.8 °C 1010.4 hPa NE 11.1 km/h 11.1 km/h 44 % 0.0 mm 791.0 W/m2 CLR
11:42 20.7 °C 8.0 °C 1010.4 hPa NE 9.3 km/h 9.3 km/h 44 % 0.0 mm 814.0 W/m2 CLR
11:47 20.8 °C 7.8 °C 1010.4 hPa NE 13.0 km/h 13.0 km/h 43 % 0.0 mm 800.0 W/m2 CLR
11:52 21.0 °C 7.6 °C 1010.0 hPa NE 9.3 km/h 9.3 km/h 42 % 0.0 mm 856.0 W/m2 CLR
11:57 21.2 °C 7.7 °C 1010.0 hPa North 14.8 km/h 14.8 km/h 42 % 0.0 mm 846.0 W/m2 CLR
12:02 21.4 °C 7.9 °C 1010.0 hPa NE 11.3 km/h 11.4 km/h 42 % 0.0 mm 831.0 W/m2 CLR
12:07 21.5 °C 8.4 °C 1010.0 hPa NNE 9.7 km/h 9.7 km/h 43 % 0.0 mm 805.0 W/m2 CLR
12:13 21.6 °C 8.2 °C 1010.0 hPa NNE 11.3 km/h 11.3 km/h 42 % 0.0 mm 766.0 W/m2 CLR
12:18 21.6 °C 7.8 °C 1009.7 hPa NNE 12.9 km/h 12.9 km/h 41 % 0.0 mm 710.0 W/m2 CLR
12:23 21.9 °C 7.7 °C 1010.0 hPa NNE 11.1 km/h 11.1 km/h 40 % 0.0 mm 701.0 W/m2 CLR
12:28 22.1 °C 8.6 °C 1009.7 hPa NNE 7.4 km/h 7.4 km/h 42 % 0.0 mm 759.0 W/m2 CLR
12:33 22.3 °C 9.1 °C 1009.7 hPa ENE 11.3 km/h 11.3 km/h 43 % 0.0 mm 714.0 W/m2 CLR
12:38 22.4 °C 9.6 °C 1009.4 hPa ENE 14.8 km/h 14.8 km/h 44 % 0.0 mm 886.0 W/m2 CLR
12:43 22.7 °C 10.4 °C 1009.4 hPa ENE 20.9 km/h 20.9 km/h 46 % 0.0 mm 944.0 W/m2 CLR
12:48 23.0 °C 10.1 °C 1009.0 hPa ENE 7.4 km/h 7.4 km/h 44 % 0.0 mm 918.0 W/m2 CLR
12:53 22.8 °C 8.9 °C 1009.0 hPa ENE 11.1 km/h 11.1 km/h 41 % 0.0 mm 833.0 W/m2 CLR
12:58 23.0 °C 8.3 °C 1009.0 hPa NE 18.5 km/h 18.5 km/h 39 % 0.0 mm 977.0 W/m2 CLR
13:03 23.2 °C 7.7 °C 1009.0 hPa ENE 11.1 km/h 11.1 km/h 37 % 0.0 mm 851.0 W/m2 CLR
13:08 23.2 °C 7.7 °C 1008.7 hPa East 14.8 km/h 14.8 km/h 37 % 0.0 mm 847.0 W/m2 CLR
13:13 23.1 °C 9.1 °C 1008.7 hPa ESE 16.7 km/h 16.7 km/h 41 % 0.0 mm 962.0 W/m2 CLR
13:18 23.1 °C 8.0 °C 1008.7 hPa East 12.9 km/h 12.9 km/h 38 % 0.0 mm 1074.0 W/m2 CLR
13:23 23.4 °C 8.7 °C 1008.7 hPa NNE 11.1 km/h 11.1 km/h 39 % 0.0 mm 800.0 W/m2 CLR
13:28 23.7 °C 8.9 °C 1008.7 hPa ENE 7.4 km/h 7.4 km/h 39 % 0.0 mm 777.0 W/m2 CLR
13:33 23.9 °C 9.1 °C 1008.4 hPa ENE 8.0 km/h 8.0 km/h 39 % 0.0 mm 930.0 W/m2 CLR
13:38 24.1 °C 10.0 °C 1008.4 hPa ENE 13.0 km/h 13.0 km/h 41 % 0.0 mm 923.0 W/m2 CLR
13:43 23.9 °C 10.2 °C 1008.4 hPa ESE 7.4 km/h 7.4 km/h 42 % 0.0 mm 923.0 W/m2 CLR
13:48 23.8 °C 10.2 °C 1008.0 hPa ESE 13.0 km/h 13.0 km/h 42 % 0.0 mm 921.0 W/m2 CLR
13:53 23.9 °C 9.8 °C 1008.0 hPa East 5.6 km/h 5.6 km/h 41 % 0.0 mm 918.0 W/m2 CLR
13:58 24.1 °C 10.3 °C 1008.0 hPa ENE 14.8 km/h 14.8 km/h 42 % 0.0 mm 919.0 W/m2 CLR
14:03 24.3 °C 10.9 °C 1008.0 hPa NE 18.5 km/h 18.5 km/h 43 % 0.0 mm 919.0 W/m2 CLR
14:08 24.4 °C 11.0 °C 1007.7 hPa NE 11.1 km/h 11.1 km/h 43 % 0.0 mm 928.0 W/m2 CLR
14:13 24.6 °C 10.4 °C 1007.7 hPa NE 19.3 km/h 19.3 km/h 41 % 0.0 mm 844.0 W/m2 CLR
14:18 24.4 °C 10.3 °C 1007.7 hPa NE 11.1 km/h 11.1 km/h 41 % 0.0 mm 846.0 W/m2 CLR
14:23 24.7 °C 10.2 °C 1007.7 hPa East 9.7 km/h 9.7 km/h 40 % 0.0 mm 935.0 W/m2 CLR
14:28 24.7 °C 10.6 °C 1007.3 hPa NNE 14.8 km/h 14.8 km/h 41 % 0.0 mm 939.0 W/m2 CLR
14:33 24.7 °C 10.6 °C 1007.3 hPa NNE 13.0 km/h 13.0 km/h 41 % 0.0 mm 928.0 W/m2 CLR
14:38 24.8 °C 10.7 °C 1007.3 hPa NNE 13.0 km/h 13.0 km/h 41 % 0.0 mm 956.0 W/m2 CLR
14:43 24.6 °C 11.6 °C 1007.3 hPa NE 11.1 km/h 11.1 km/h 44 % 0.0 mm 232.0 W/m2 CLR
14:48 24.5 °C 11.8 °C 1007.3 hPa East 13.0 km/h 13.0 km/h 45 % 0.0 mm 940.0 W/m2 CLR
14:53 24.4 °C 11.7 °C 1007.0 hPa ESE 14.5 km/h 14.5 km/h 45 % 0.0 mm 905.0 W/m2 CLR
14:58 24.3 °C 12.2 °C 1007.0 hPa East 16.7 km/h 16.7 km/h 47 % 0.0 mm 904.0 W/m2 CLR
15:03 24.5 °C 12.4 °C 1006.7 hPa ENE 17.7 km/h 17.7 km/h 47 % 0.0 mm 905.0 W/m2 CLR
15:08 24.5 °C 12.4 °C 1006.7 hPa East 11.1 km/h 11.1 km/h 47 % 0.0 mm 863.0 W/m2 CLR
15:13 24.8 °C 12.7 °C 1006.3 hPa East 13.0 km/h 13.0 km/h 47 % 0.0 mm 860.0 W/m2 CLR
15:18 24.9 °C 13.1 °C 1006.3 hPa East 16.7 km/h 16.7 km/h 48 % 0.0 mm 856.0 W/m2 CLR
15:23 24.9 °C 13.1 °C 1006.3 hPa ENE 13.0 km/h 13.0 km/h 48 % 0.0 mm 842.0 W/m2 CLR
15:28 24.8 °C 13.4 °C 1006.0 hPa ESE 20.4 km/h 20.4 km/h 49 % 0.0 mm 842.0 W/m2 CLR
15:33 24.8 °C 13.4 °C 1005.6 hPa East 20.4 km/h 20.4 km/h 49 % 0.0 mm 831.0 W/m2 CLR
15:38 24.5 °C 13.4 °C 1005.6 hPa ESE 20.4 km/h 20.4 km/h 50 % 0.0 mm 823.0 W/m2 CLR
15:43 24.4 °C 13.3 °C 1005.6 hPa ESE 16.7 km/h 16.7 km/h 50 % 0.0 mm 817.0 W/m2 CLR
15:48 24.3 °C 13.2 °C 1005.6 hPa East 18.5 km/h 18.5 km/h 50 % 0.0 mm 816.0 W/m2 CLR
15:53 24.4 °C 13.3 °C 1005.3 hPa ESE 16.7 km/h 16.7 km/h 50 % 0.0 mm 803.0 W/m2 CLR
15:58 24.4 °C 13.3 °C 1005.3 hPa ENE 18.5 km/h 18.5 km/h 50 % 0.0 mm 791.0 W/m2 CLR
16:03 24.6 °C 13.5 °C 1005.3 hPa ESE 14.8 km/h 14.8 km/h 50 % 0.0 mm 788.0 W/m2 CLR
16:08 24.6 °C 13.4 °C 1005.3 hPa ENE 16.7 km/h 16.7 km/h 50 % 0.0 mm 779.0 W/m2 CLR
16:13 24.4 °C 13.0 °C 1005.3 hPa ESE 16.1 km/h 16.1 km/h 49 % 0.0 mm 773.0 W/m2 CLR
16:18 24.4 °C 13.6 °C 1005.3 hPa SE 14.8 km/h 14.8 km/h 51 % 0.0 mm 726.0 W/m2 CLR
16:23 24.5 °C 13.7 °C 1005.3 hPa East 18.5 km/h 18.5 km/h 51 % 0.0 mm 749.0 W/m2 CLR
16:28 24.4 °C 13.3 °C 1005.0 hPa ESE 19.3 km/h 19.3 km/h 50 % 0.0 mm 761.0 W/m2 CLR
16:33 24.3 °C 13.6 °C 1005.0 hPa SE 20.4 km/h 20.4 km/h 51 % 0.0 mm 754.0 W/m2 CLR
16:38 24.2 °C 13.4 °C 1004.6 hPa ESE 24.1 km/h 24.1 km/h 51 % 0.0 mm 742.0 W/m2 CLR
16:43 24.1 °C 13.3 °C 1004.6 hPa East 20.4 km/h 20.4 km/h 51 % 0.0 mm 554.0 W/m2 CLR
16:48 23.8 °C 13.3 °C 1004.6 hPa East 17.7 km/h 17.7 km/h 52 % 0.0 mm 251.0 W/m2 CLR
16:53 23.3 °C 13.5 °C 1004.6 hPa ENE 18.5 km/h 18.5 km/h 54 % 0.0 mm 304.0 W/m2 CLR
16:58 23.5 °C 13.4 °C 1004.6 hPa ESE 16.7 km/h 16.7 km/h 53 % 0.0 mm 294.0 W/m2 CLR
17:03 23.4 °C 13.3 °C 1004.6 hPa ESE 19.3 km/h 19.3 km/h 53 % 0.0 mm 577.0 W/m2 CLR
17:08 23.6 °C 13.4 °C 1004.3 hPa ESE 18.5 km/h 18.5 km/h 53 % 0.0 mm 766.0 W/m2 CLR
17:13 23.6 °C 13.4 °C 1004.3 hPa East 16.7 km/h 16.7 km/h 53 % 0.0 mm 151.0 W/m2 CLR
17:18 23.6 °C 12.8 °C 1004.3 hPa ESE 14.8 km/h 14.8 km/h 51 % 0.0 mm 146.0 W/m2 CLR
17:23 23.4 °C 12.4 °C 1004.3 hPa ESE 18.5 km/h 18.5 km/h 50 % 0.0 mm 134.0 W/m2 CLR
17:28 23.3 °C 12.6 °C 1004.3 hPa ESE 18.5 km/h 18.5 km/h 51 % 0.0 mm 105.0 W/m2 CLR
17:33 23.2 °C 12.5 °C 1004.3 hPa ESE 16.7 km/h 16.7 km/h 51 % 0.0 mm 86.0 W/m2 CLR
17:38 22.9 °C 12.6 °C 1004.3 hPa ESE 18.5 km/h 18.5 km/h 52 % 0.0 mm 65.0 W/m2 CLR
17:43 22.7 °C 12.3 °C 1004.3 hPa East 18.5 km/h 18.5 km/h 52 % 0.0 mm 42.0 W/m2 FEW
17:48 22.5 °C 12.4 °C 1004.3 hPa East 18.5 km/h 18.5 km/h 53 % 0.0 mm 30.0 W/m2 SCT
17:53 22.3 °C 12.5 °C 1004.3 hPa ESE 12.9 km/h 12.9 km/h 54 % 0.0 mm 19.0 W/m2 BKN
17:58 22.1 °C 12.3 °C 1004.3 hPa East 18.5 km/h 18.5 km/h 54 % 0.0 mm 14.0 W/m2 BKN
18:03 21.9 °C 12.2 °C 1004.3 hPa ESE 16.7 km/h 16.7 km/h 54 % 0.0 mm 11.0 W/m2 BKN
18:08 21.7 °C 12.2 °C 1004.6 hPa SE 18.5 km/h 18.5 km/h 55 % 0.0 mm 9.0 W/m2 BKN
18:13 21.6 °C 12.4 °C 1004.6 hPa SE 14.8 km/h 14.8 km/h 56 % 0.0 mm 7.0 W/m2 BKN
18:18 21.4 °C 12.5 °C 1005.0 hPa SSE 18.5 km/h 18.5 km/h 57 % 0.0 mm 5.0 W/m2 BKN
18:23 21.0 °C 13.2 °C 1005.0 hPa SSE 11.1 km/h 11.1 km/h 61 % 0.0 mm 5.0 W/m2 BKN
18:29 20.6 °C 12.8 °C 1005.0 hPa SSE 18.5 km/h 18.5 km/h 61 % 0.0 mm 5.0 W/m2 OVC
18:34 20.2 °C 13.4 °C 1005.3 hPa SSE 9.3 km/h 10.1 km/h 65 % 0.0 mm 0.0 W/m2 OVC
18:39 19.8 °C 13.4 °C 1005.3 hPa SSE 20.9 km/h 20.9 km/h 67 % 0.3 mm 0.0 W/m2 RA
18:44 19.3 °C 13.3 °C 1005.0 hPa SSE 24.1 km/h 24.1 km/h 68 % 0.5 mm 0.0 W/m2 RA
18:49 18.8 °C 13.4 °C 1005.0 hPa SSE 24.1 km/h 24.5 km/h 71 % 0.5 mm 0.0 W/m2 RA
18:54 18.5 °C 13.2 °C 1004.6 hPa SE 33.3 km/h 33.3 km/h 71 % 0.5 mm 0.0 W/m2 OVC
18:59 18.2 °C 13.4 °C 1004.6 hPa SSE 40.7 km/h 40.7 km/h 74 % 0.5 mm 0.0 W/m2 OVC
19:04 17.9 °C 13.4 °C 1004.3 hPa SSE 44.4 km/h 44.4 km/h 75 % 0.8 mm 5.0 W/m2 RA
19:09 17.8 °C 13.7 °C 1004.3 hPa South 31.5 km/h 31.5 km/h 77 % 0.8 mm 5.0 W/m2 OVC
19:14 17.7 °C 13.6 °C 1004.3 hPa SSE 35.2 km/h 35.2 km/h 77 % 0.8 mm 7.0 W/m2 BKN
19:19 17.4 °C 13.7 °C 1003.9 hPa SSE 31.5 km/h 31.5 km/h 79 % 0.8 mm 9.0 W/m2 BKN
19:24 17.4 °C 13.9 °C 1003.6 hPa SE 25.9 km/h 25.9 km/h 80 % 0.8 mm 14.0 W/m2 BKN
19:29 17.6 °C 13.9 °C 1003.6 hPa SE 14.8 km/h 14.8 km/h 79 % 0.8 mm 32.0 W/m2 BKN
19:34 17.6 °C 13.9 °C 1003.9 hPa WNW 3.7 km/h   79 % 0.5 mm 42.0 W/m2 BKN
19:39 17.6 °C 13.9 °C 1004.3 hPa West 5.6 km/h 5.6 km/h 79 % 0.5 mm 35.0 W/m2 BKN
19:44 17.6 °C 13.9 °C 1004.3 hPa South 25.9 km/h 25.9 km/h 79 % 0.5 mm 26.0 W/m2 BKN
19:49 17.3 °C 13.8 °C 1004.3 hPa South 6.4 km/h 6.4 km/h 80 % 0.3 mm 25.0 W/m2 BKN
19:54 17.1 °C 13.8 °C 1004.3 hPa South 18.5 km/h 18.5 km/h 81 % 0.3 mm 21.0 W/m2 BKN
19:59 17.1 °C 13.8 °C 1004.3 hPa SSE 11.1 km/h 11.1 km/h 81 % 0.3 mm 18.0 W/m2 BKN
20:04 17.2 °C 13.7 °C 1004.6 hPa South 20.4 km/h 20.4 km/h 80 % 0.0 mm 47.0 W/m2 SCT
20:09 17.4 °C 13.9 °C 1004.6 hPa SSE 22.2 km/h 22.2 km/h 80 % 0.0 mm 49.0 W/m2 SCT
20:14 17.4 °C 13.8 °C 1004.3 hPa South 20.4 km/h 20.4 km/h 79 % 0.0 mm 51.0 W/m2 SCT
20:19 17.5 °C 13.8 °C 1004.3 hPa SSW 20.4 km/h 20.4 km/h 79 % 0.0 mm 54.0 W/m2 SCT
20:24 17.4 °C 13.9 °C 1004.3 hPa South 19.3 km/h 19.3 km/h 80 % 0.0 mm 44.0 W/m2 BKN
20:29 17.3 °C 14.0 °C 1004.3 hPa South 18.5 km/h 18.5 km/h 81 % 0.0 mm 16.0 W/m2 BKN
20:34 17.2 °C 13.9 °C 1004.3 hPa SSE 22.2 km/h 22.2 km/h 81 % 0.0 mm 5.0 W/m2 BKN
20:39 17.2 °C 13.9 °C 1004.3 hPa South 20.4 km/h 20.4 km/h 81 % 0.0 mm 0.0 W/m2 OVC
20:44 17.5 °C 13.8 °C 1004.6 hPa SSW 7.4 km/h 7.4 km/h 79 % 0.0 mm 0.0 W/m2 OVC
20:49 17.7 °C 13.8 °C 1004.6 hPa SE 13.0 km/h 13.0 km/h 78 % 0.0 mm 0.0 W/m2 OVC
20:54 17.8 °C 13.7 °C 1004.6 hPa NNE 5.6 km/h   77 % 0.0 mm 0.0 W/m2 OVC
20:59 18.0 °C 13.9 °C 1005.0 hPa South 9.3 km/h 9.3 km/h 77 % 0.0 mm 0.0 W/m2 OVC
21:04 17.9 °C 13.8 °C 1005.0 hPa SSE 1.6 km/h   77 % 0.0 mm 0.0 W/m2 OVC
21:09 17.9 °C 14.1 °C 1004.6 hPa SE 16.7 km/h 16.7 km/h 78 % 0.3 mm 0.0 W/m2 RA
21:14 17.7 °C 14.1 °C 1004.6 hPa South 20.4 km/h 20.4 km/h 79 % 0.3 mm 0.0 W/m2
21:19 17.3 °C 14.1 °C 1004.3 hPa South 18.5 km/h 18.5 km/h 81 % 0.3 mm 0.0 W/m2 CLR
21:24 17.2 °C 13.9 °C 1004.3 hPa SSE 24.1 km/h 24.1 km/h 81 % 0.3 mm 0.0 W/m2 CLR
21:29 17.2 °C 13.9 °C 1004.3 hPa South 20.4 km/h 20.4 km/h 81 % 0.3 mm 0.0 W/m2 CLR
21:34 17.2 °C 13.9 °C 1004.6 hPa South 9.3 km/h 9.3 km/h 81 % 0.3 mm 0.0 W/m2 CLR
21:39 17.0 °C 13.9 °C 1004.6 hPa SSE 5.6 km/h   82 % 0.3 mm 0.0 W/m2 CLR
21:44 16.9 °C 13.8 °C 1005.0 hPa ENE 1.9 km/h 3.1 km/h 82 % 0.3 mm 0.0 W/m2 CLR
21:49 16.8 °C 13.7 °C 1005.0 hPa SE 11.1 km/h 11.1 km/h 82 % 0.3 mm 0.0 W/m2 CLR
21:54 16.8 °C 13.7 °C 1005.3 hPa East 6.4 km/h 6.4 km/h 82 % 0.3 mm 0.0 W/m2 CLR
21:59 16.9 °C 13.8 °C 1005.3 hPa Calm     82 % 0.3 mm 0.0 W/m2 CLR
22:04 16.9 °C 13.6 °C 1006.0 hPa Calm     81 % 0.3 mm 0.0 W/m2 CLR
22:09 17.0 °C 13.5 °C 1006.0 hPa Calm     80 % 0.0 mm 0.0 W/m2 CLR
22:14 17.1 °C 13.6 °C 1006.0 hPa NNE 9.3 km/h 9.3 km/h 80 % 0.0 mm 0.0 W/m2 CLR
22:19 17.0 °C 13.7 °C 1006.0 hPa North 9.3 km/h 9.3 km/h 81 % 0.0 mm 0.0 W/m2 CLR
22:24 17.1 °C 13.4 °C 1006.3 hPa ENE 5.6 km/h 5.6 km/h 79 % 0.0 mm 0.0 W/m2 CLR
22:29 17.3 °C 13.4 °C 1006.3 hPa ESE 5.6 km/h 5.6 km/h 78 % 0.0 mm 0.0 W/m2 CLR
22:34 17.2 °C 13.7 °C 1006.0 hPa ESE 6.4 km/h 6.4 km/h 80 % 0.0 mm 0.0 W/m2 CLR
22:39 17.0 °C 13.7 °C 1006.7 hPa Calm     81 % 0.3 mm 0.0 W/m2 RA
22:44 16.8 °C 13.7 °C 1006.7 hPa Calm     82 % 0.3 mm 0.0 W/m2 CLR
22:49 16.6 °C 13.7 °C 1007.0 hPa North 8.0 km/h 8.0 km/h 83 % 0.3 mm 0.0 W/m2 CLR
22:54 16.3 °C 13.8 °C 1007.3 hPa NNE 13.0 km/h 13.0 km/h 85 % 0.3 mm 0.0 W/m2 CLR
23:00 16.1 °C 13.8 °C 1007.0 hPa NE 11.1 km/h 11.1 km/h 86 % 0.3 mm 0.0 W/m2 CLR
23:01 16.1 °C 13.8 °C 1007.0 hPa ENE 9.3 km/h 9.3 km/h 86 % 0.3 mm 0.0 W/m2 CLR
23:06 16.1 °C 13.7 °C 1007.0 hPa ENE 3.2 km/h 3.2 km/h 86 % 0.3 mm 0.0 W/m2 CLR
23:11 15.9 °C 13.6 °C 1006.7 hPa ENE 16.7 km/h 16.7 km/h 86 % 0.3 mm 0.0 W/m2 CLR
23:16 15.8 °C 13.7 °C 1006.7 hPa ENE 3.7 km/h   87 % 0.3 mm 0.0 W/m2 CLR
23:21 15.7 °C 13.6 °C 1006.7 hPa ENE 1.9 km/h   87 % 0.3 mm 0.0 W/m2 CLR
23:26 15.6 °C 13.4 °C 1006.7 hPa Calm     87 % 0.3 mm 0.0 W/m2 CLR
23:31 15.4 °C 13.4 °C 1006.7 hPa NE 1.9 km/h 1.9 km/h 88 % 0.3 mm 0.0 W/m2 CLR
23:36 15.3 °C 13.3 °C 1007.0 hPa ENE 9.3 km/h 9.3 km/h 88 % 0.0 mm 0.0 W/m2 CLR
23:41 15.2 °C 13.2 °C 1007.0 hPa Calm     88 % 0.0 mm 0.0 W/m2 CLR
23:46 15.1 °C 13.1 °C 1007.0 hPa ENE 7.4 km/h 7.4 km/h 88 % 0.0 mm 0.0 W/m2 CLR
23:51 15.1 °C 13.3 °C 1007.0 hPa Calm     89 % 0.0 mm 0.0 W/m2 CLR
23:57 15.0 °C 13.2 °C 1007.0 hPa NE 11.3 km/h 11.3 km/h 89 % 0.0 mm 0.0 W/m2 CLR
Lo Temps de Massalio
Compliments of Weather Underground - 1.25 mb